Temperature
14 15 15 16 12 10 12 12 12 13 13 14 15 15 14 14 14 15 15 15 15 15 15 14 14 14 14 14 15 15 15 15 15 15 15 15 15 15 15 15 15 15 15 15 15 15 15 15 15
14 15 15 15 10 11 12 12 12 12 14 15 15 15 14 14 15 15 15 15 15 15 15 14 14 14 14 14 14 14 15 15 15 15 15 15 15 15 15 15 15 15 15 15 15 15 15 15 15
15 15 15 10 10 11 13 13 12 13 14 15 14 14 14 14 14 15 15 15 15 15 14 14 14 14 14 14 14 14 14 14 15 15 15 15 15 15 15 15 15 15 15 15 15 15 15 14 14
15 15 13 10 11 11 12 13 12 13 14 14 14 13 14 14 14 14 15 15 14 14 14 14 14 14 14 14 14 14 14 14 14 14 15 15 15 14 15 14 14 15 15 15 14 14 14 14 14
15 14 10 10 11 11 10 11 12 13 13 14 14 13 14 14 14 14 14 14 14 14 14 14 14 14 14 14 14 14 14 14 14 14 14 14 14 14 14 14 14 14 14 14 14 14 14 14 14
14 10 9 10 11 11 11 12 13 12 13 13 13 13 13 14 14 14 14 14 14 14 14 13 13 14 14 14 14 14 14 14 14 14 14 14 14 14 14 14 14 14 14 14 14 14 14 14 14
12 8 10 10 10 11 12 13 13 12 12 13 14 12 13 14 14 14 14 13 13 13 13 13 13 13 13 13 13 13 14 14 14 14 14 14 14 14 14 14 14 14 14 14 14 14 14 14 13
13 8 10 9 10 11 12 13 13 13 13 14 14 13 13 14 14 13 13 13 13 13 13 13 13 13 13 13 13 13 13 13 13 13 13 13 13 14 14 14 13 13 13 13 13 13 13 13 13
13 8 9 9 10 11 12 12 13 13 13 13 13 14 14 14 13 13 13 13 13 13 13 12 13 13 13 13 13 13 13 13 13 13 13 13 13 13 13 13 13 13 13 13 13 13 13 13 13
11 8 10 10 10 11 12 12 13 13 12 12 13 13 14 13 13 13 13 13 13 13 12 12 12 12 12 12 12 12 12 12 12 12 13 13 13 13 13 13 13 13 13 13 13 13 13 12 13
9 9 10 10 11 12 12 12 12 12 11 12 13 13 13 13 13 13 13 13 13 13 12 12 12 12 12 12 12 12 12 12 12 12 12 12 12 12 12 12 13 13 13 12 12 12 12 12 12
9 9 10 11 11 11 11 11 11 11 12 13 13 13 13 12 12 13 12 13 12 12 12 12 12 12 12 12 12 12 12 12 12 12 12 12 12 12 12 12 12 12 12 12 12 12 12 12 12
9 9 10 10 11 11 11 10 10 11 12 12 12 12 12 12 12 12 12 12 12 12 12 12 12 12 11 11 11 11 11 11 11 11 11 11 11 12 12 12 12 12 12 12 12 12 12 12 12
9 9 9 10 10 10 10 9 9 11 12 12 12 12 12 12 12 12 12 12 12 12 12 12 11 11 11 11 11 11 11 11 11 11 11 11 11 11 11 11 11 12 12 11 11 11 11 11 11
9 8 9 9 9 10 9 8 8 11 11 11 11 11 11 11 11 12 12 12 12 12 12 11 11 11 11 11 11 11 11 11 11 11 11 11 11 11 11 11 11 11 11 11 11 11 11 11 11
8 8 8 9 9 9 9 8 9 10 10 10 10 11 11 11 11 11 11 11 11 11 11 11 11 11 11 11 10 11 11 10 10 10 10 10 10 10 10 10 10 11 10 10 11 11 11 10 10
7 7 7 8 8 8 8 7 8 10 9 9 9 10 10 10 11 11 11 11 11 11 11 11 10 10 10 10 10 10 10 10 10 10 10 10 10 10 10 10 10 10 10 10 10 10 10 10 10
7 7 7 7 8 7 7 6 7 8 8 8 9 9 9 10 11 11 11 11 11 10 10 10 10 10 10 10 10 10 10 10 10 10 10 10 10 10 10 10 10 10 10 10 10 10 10 10 10
7 7 7 7 7 7 6 6 7 7 7 7 7 8 9 10 10 10 10 10 10 10 10 10 10 10 10 10 9 9 9 9 9 9 9 9 9 9 9 9 9 9 9 9 9 9 9 9 9
6 6 6 6 7 7 6 6 6 6 6 7 7 7 8 9 10 10 10 10 10 10 10 10 10 10 10 9 9 9 9 9 9 9 9 9 9 9 9 9 9 9 9 9 9 9 9 9 9
6 6 6 6 6 6 6 6 6 6 6 7 7 7 8 8 9 9 9 10 10 10 10 10 10 9 9 9 9 9 9 9 8 8 9 8 8 9 9 8 9 9 9 9 9 9 9 9 8
6 6 6 6 5 5 6 5 5 5 5 5 6 6 7 8 8 9 9 9 9 9 9 9 9 9 9 9 9 9 9 8 8 8 8 8 8 8 8 8 8 8 8 8 8 8 8 8 8
5 6 5 5 5 5 5 5 5 5 5 5 5 6 6 7 8 8 8 9 9 9 9 9 9 9 9 9 8 8 8 8 8 8 8 8 8 8 8 8 8 8 8 8 8 8 8 8 8
5 5 5 4 4 5 5 5 4 4 5 5 5 6 6 6 7 8 8 8 8 8 8 8 8 8 8 8 8 8 8 8 8 8 7 7 7 7 7 7 7 7 7 8 8 8 7 7 7
5 4 4 4 4 5 5 4 4 4 4 4 4 5 5 6 6 7 7 7 7 8 8 8 8 8 8 8 8 8 7 7 7 7 7 7 7 7 7 7 7 7 7 7 7 7 7 7 7
4 4 4 4 4 4 4 3 3 4 4 4 4 4 4 5 6 6 6 6 7 7 7 7 7 7 7 7 7 7 7 7 7 7 7 7 7 7 7 7 7 7 7 7 7 7 7 7 7
3 3 3 3 3 3 3 3 3 4 3 3 3 3 3 4 5 5 6 6 6 6 6 6 6 7 6 6 6 6 6 6 6 6 6 6 6 6 6 6 6 6 6 6 6 6 6 6 6
3 2 2 2 3 4 3 3 3 3 2 2 1 2 2 3 3 4 5 5 5 5 5 6 6 6 6 6 6 6 6 6 6 6 6 6 6 6 6 6 6 6 6 6 6 6 6 6 6
2 2 1 1 2 2 3 3 2 2 1 1 1 1 1 2 2 3 3 4 4 5 5 5 5 5 5 5 5 5 5 5 5 5 5 5 5 5 5 5 6 6 6 6 6 6 6 6 6
2 1 1 1 1 0 1 2 1 0 0 1 1 1 1 1 2 2 3 3 3 4 4 4 4 4 4 4 5 5 5 5 5 5 5 5 5 5 5 5 5 5 5 5 5 5 5 5 5
Wind_Speed
4 4 3 4 6 5 3 4 3 2 3 2 2 4 6 5 5 3 0 3 5 5 6 7 9 9 9 8 8 8 9 8 8 8 8 8 8 8 8 8 8 8 8 8 9 9 10 10 11
2 3 5 5 5 1 5 5 5 5 4 2 2 3 3 2 1 2 1 2 5 6 6 7 10 10 9 8 8 8 8 8 7 7 7 7 7 7 7 7 7 7 8 8 9 9 10 10 11
3 5 5 5 4 6 5 4 6 3 2 1 1 1 2 2 2 3 2 4 5 5 5 7 10 9 9 8 7 7 8 7 7 6 6 6 6 6 6 6 7 8 8 8 9 9 10 10 11
4 5 5 4 3 5 5 3 3 1 0 1 3 1 1 1 2 2 3 5 6 5 5 7 9 9 8 7 7 7 7 7 6 6 6 6 5 5 5 6 8 8 8 8 8 9 9 10 10
5 5 4 0 4 4 4 4 3 2 1 1 3 3 2 2 2 4 5 5 6 4 4 6 8 8 8 7 7 7 6 6 6 5 5 5 5 5 6 6 7 7 7 8 8 9 9 10 10
5 5 3 4 6 4 4 3 3 2 2 2 4 4 3 1 3 5 5 5 5 5 4 5 7 7 7 7 7 6 6 6 6 5 5 5 5 5 6 6 6 6 7 7 8 8 9 9 10
5 4 4 5 4 4 4 3 4 4 4 4 5 5 2 1 3 5 5 5 5 4 4 4 4 5 6 6 6 6 6 5 5 5 5 4 5 5 5 5 5 5 6 7 7 8 8 9 9
5 5 2 3 5 5 2 2 2 5 4 2 6 6 5 5 5 6 5 4 4 3 3 3 4 4 4 4 5 5 5 5 5 4 4 4 4 4 4 4 4 5 5 6 6 7 8 9 9
4 3 5 6 6 5 2 1 1 1 2 1 2 4 3 6 8 7 4 3 2 2 2 2 3 3 3 3 4 4 4 4 4 4 4 4 4 4 4 4 4 4 4 5 6 7 7 8 8
4 4 8 5 5 3 2 2 2 0 1 2 2 1 2 6 8 8 7 7 6 5 3 2 3 3 3 3 3 4 3 3 4 4 4 4 4 4 4 4 3 3 3 4 5 6 7 7 7
4 6 4 3 3 2 2 2 2 3 5 6 6 4 5 6 7 8 8 8 7 6 4 3 3 3 3 3 3 3 3 3 3 3 3 4 4 4 4 3 3 3 3 3 3 4 5 6 5
2 3 3 3 2 2 3 2 2 5 7 5 5 4 6 8 9 9 9 8 6 5 6 4 4 3 3 3 2 3 2 2 2 2 3 4 3 3 3 3 2 3 2 3 3 3 4 5 5
3 3 3 3 3 3 3 4 4 6 7 4 1 4 7 8 8 7 7 6 5 6 6 5 4 4 3 3 2 2 2 2 2 2 3 3 3 2 2 2 2 2 2 3 3 3 4 4 4
3 3 4 4 4 3 4 6 4 8 5 3 3 5 7 8 8 5 5 5 6 6 6 5 5 5 4 3 3 2 2 2 2 2 2 3 3 3 2 1 1 1 2 3 3 3 3 3 3
1 3 5 3 3 2 1 7 7 7 2 4 5 6 7 7 7 7 7 7 7 6 5 5 5 4 5 4 3 2 2 3 2 2 3 3 3 3 3 2 1 1 2 3 3 4 3 3 2
2 1 4 4 3 2 2 10 6 4 4 6 6 6 7 7 7 7 7 6 5 5 5 5 4 4 4 4 3 3 3 3 2 2 3 3 3 3 3 2 2 2 3 3 3 3 3 2 2
2 2 5 6 3 2 4 9 7 3 3 6 6 6 6 6 6 6 6 6 5 6 5 4 4 5 5 4 3 3 3 2 2 2 2 3 3 3 3 2 2 2 3 3 3 3 3 3 2
4 4 5 6 3 2 6 10 9 4 4 6 6 6 6 7 8 6 5 5 5 5 4 4 3 4 4 3 3 2 2 1 2 2 2 2 2 3 3 2 2 2 2 2 3 3 3 3 3
3 5 7 6 4 3 8 12 11 6 5 6 7 6 6 8 6 4 4 4 4 4 4 4 4 3 4 3 3 3 2 2 2 2 2 2 2 3 3 2 2 2 3 3 3 3 3 2 3
3 6 7 6 4 4 7 11 8 6 5 6 6 6 6 5 3 2 3 3 4 5 5 4 4 4 4 4 3 3 3 2 2 1 2 2 2 3 3 3 3 3 3 3 4 4 3 2 3
5 6 6 7 5 3 4 8 5 4 3 3 4 4 3 4 4 3 2 3 3 4 5 5 5 5 4 4 3 3 2 1 1 1 1 2 2 3 3 3 3 3 3 4 4 4 4 3 2
7 5 5 6 4 4 1 5 6 4 5 5 5 4 3 3 2 2 2 2 3 4 4 4 4 4 4 5 5 5 3 2 2 2 2 1 2 2 3 3 4 4 3 4 4 3 3 5 4
5 4 5 5 4 4 2 3 7 3 4 6 6 5 4 3 2 2 2 2 2 2 3 3 3 3 4 5 5 5 3 2 1 1 1 1 1 1 2 3 3 4 3 4 4 4 4 4 4
2 3 2 0 2 5 6 5 6 2 3 6 5 5 4 3 2 1 1 0 0 1 2 2 4 3 3 4 4 4 4 3 2 1 2 1 1 1 2 3 3 3 3 4 5 4 5 5 4
3 2 3 2 2 6 3 4 5 4 3 3 5 5 5 4 2 2 2 1 1 0 1 2 3 2 2 3 3 4 4 4 4 3 2 2 1 1 2 3 3 3 4 4 5 5 5 5 6
3 2 3 4 5 4 1 5 4 3 4 4 4 5 5 5 4 3 2 1 1 1 1 2 2 2 2 2 2 2 3 3 2 2 2 3 3 3 3 3 3 4 4 4 4 4 5 5 5
2 2 2 2 3 3 4 3 5 5 8 8 8 8 8 7 6 5 4 3 2 1 1 1 2 1 1 1 2 2 2 2 2 2 2 2 2 2 2 3 3 3 3 4 4 4 4 5 5
0 1 2 0 3 4 4 3 3 6 8 10 10 9 9 8 8 7 5 4 3 2 2 0 1 1 1 1 1 1 1 2 2 2 2 2 2 2 2 3 3 3 3 3 3 3 3 5 5
2 1 1 2 2 2 3 3 2 3 5 7 8 8 8 9 8 7 6 5 4 3 2 2 1 0 0 0 0 0 1 1 1 2 3 3 3 3 3 3 3 3 3 3 3 3 4 5 4
1 1 1 1 4 2 3 4 3 4 5 6 7 7 8 8 8 7 6 6 5 4 3 2 2 1 1 1 1 1 1 1 1 2 3 3 3 3 3 3 3 3 3 3 4 4 4 5 5
Wind_Direction
30 70 71 56 57 54 233 239 213 215 219 217 163 151 159 167 173 196 334 126 128 139 152 151 149 145 141 136 131 125 118 112 110 111 112 114 123 126 127 129 126 123 120 119 121 120 118 114 112
59 74 55 60 93 157 259 236 213 215 200 129 94 110 125 205 226 129 150 171 136 137 142 148 145 141 141 139 134 128 123 119 114 113 113 116 119 124 124 128 125 124 120 120 122 122 121 119 117
82 54 80 79 130 189 226 226 218 246 229 167 114 93 164 200 178 183 202 162 132 126 134 146 144 142 142 140 137 132 128 124 122 117 112 114 118 120 125 124 121 118 116 119 122 123 123 121 119
76 50 58 82 213 226 227 240 203 227 3 146 145 135 265 321 202 191 149 142 132 125 128 141 144 143 140 139 139 136 133 131 126 121 118 117 118 120 118 117 116 117 116 118 121 123 123 122 121
58 77 73 348 249 254 248 245 205 193 195 168 151 169 250 338 76 118 129 135 137 130 125 140 146 145 143 143 144 143 138 135 131 126 122 122 119 115 113 114 114 118 124 124 123 123 120 120 122
59 72 111 226 247 266 259 218 180 200 208 173 156 165 228 342 125 135 131 133 131 131 113 127 143 143 144 145 147 147 145 138 134 131 126 121 115 109 107 112 120 123 132 133 130 127 123 121 123
111 113 179 206 240 264 245 185 176 189 208 211 171 163 251 239 177 140 129 124 119 114 107 101 116 125 134 139 142 145 144 137 132 133 129 125 119 114 111 112 116 120 133 136 135 133 128 126 128
125 120 174 210 217 248 249 180 195 184 213 192 155 170 222 213 153 129 115 110 116 115 116 105 108 109 109 119 135 141 141 135 131 121 119 117 117 118 115 114 112 110 124 132 134 136 132 130 129
98 102 213 214 204 241 232 189 282 212 149 171 203 207 228 139 133 132 126 125 149 158 147 134 117 110 114 114 125 125 126 123 123 114 114 109 99 103 104 107 112 108 118 136 135 140 135 132 129
110 184 224 214 203 226 231 206 222 97 257 244 261 289 119 134 151 161 171 180 186 190 186 166 148 133 122 117 110 111 114 109 105 107 108 102 100 101 101 109 110 115 117 138 140 140 137 129 124
159 199 225 242 234 238 248 252 222 179 243 230 223 209 163 161 172 182 190 192 195 192 187 180 170 150 138 121 116 111 111 103 99 108 115 114 102 95 89 88 87 92 96 105 120 122 121 123 125
188 241 229 254 243 231 230 242 255 214 237 244 226 191 175 182 190 196 199 201 194 190 197 190 176 162 153 139 134 129 117 108 97 105 116 112 98 93 92 86 82 82 97 103 102 106 112 119 128
222 260 263 261 272 250 249 247 252 254 259 276 233 177 194 200 205 209 207 203 195 198 202 198 186 177 164 145 154 142 136 135 131 118 119 125 121 129 111 97 89 94 111 116 116 119 119 120 125
238 262 279 276 260 252 249 270 249 261 260 249 218 210 212 212 211 205 203 204 205 207 207 196 189 182 169 167 170 158 147 148 138 137 143 142 131 130 128 128 115 110 129 134 134 135 130 126 125
307 310 307 273 243 243 289 287 237 253 249 248 243 235 227 223 214 211 209 205 205 206 203 198 196 179 174 174 175 156 153 151 155 162 156 152 146 143 142 151 159 165 142 129 119 121 120 120 118
17 350 295 284 225 215 180 266 267 249 214 245 251 244 239 236 223 220 215 211 203 195 193 198 189 174 176 173 166 158 152 153 166 167 155 157 160 154 144 155 175 173 143 135 143 144 146 146 139
18 276 266 289 240 195 201 256 273 271 222 251 257 251 245 245 243 232 217 210 201 196 190 188 178 174 175 165 156 157 152 159 163 159 155 160 161 159 151 159 163 157 144 148 161 154 158 160 149
254 253 260 262 279 226 240 257 276 282 244 253 261 260 250 244 245 233 215 209 203 195 189 185 176 172 161 145 133 133 137 153 149 155 162 162 161 159 148 152 153 152 156 164 163 158 150 156 154
243 248 266 270 278 260 251 266 276 278 266 264 264 260 253 250 255 231 208 199 190 187 182 182 177 175 156 150 157 161 179 178 170 172 170 166 167 163 157 161 162 166 177 182 169 159 152 144 133
268 265 271 287 284 262 274 275 275 263 254 253 258 258 254 257 269 236 203 186 188 190 190 188 189 180 173 171 170 168 168 177 176 171 164 174 179 177 170 175 181 180 176 174 171 159 157 155 148
269 244 259 272 312 299 306 296 283 287 277 297 292 276 268 243 239 236 207 200 197 199 197 193 194 184 176 159 143 122 108 100 132 173 195 205 209 196 183 186 180 180 180 186 188 180 167 170 180
270 255 257 272 283 271 238 285 286 288 307 314 312 311 297 288 264 239 207 202 205 209 198 186 180 175 168 155 156 158 165 182 203 198 205 230 215 210 191 188 182 181 183 186 195 190 180 171 179
252 281 265 259 235 262 238 239 286 319 309 307 306 306 306 298 265 241 228 216 210 194 182 173 159 162 165 162 165 167 169 180 166 155 188 214 229 217 193 189 185 189 192 195 193 188 185 183 184
273 330 315 359 161 250 221 203 279 284 283 315 319 319 321 324 318 313 334 25 46 135 144 151 156 164 163 165 167 171 173 169 156 165 189 209 221 222 202 192 187 190 194 199 197 195 193 193 187
21 41 349 321 251 247 192 199 254 287 309 308 321 321 325 337 342 352 8 360 9 64 142 152 158 165 164 164 172 179 179 175 184 198 199 209 225 232 217 208 201 200 200 199 193 195 199 195 192
290 178 194 246 246 276 211 220 256 325 349 354 353 351 2 1 0 0 355 351 336 335 170 160 161 170 172 172 182 180 176 180 195 203 202 211 223 221 214 211 210 209 203 201 198 201 202 199 198
331 272 230 213 268 263 257 278 304 354 9 10 8 10 5 0 4 3 3 5 350 328 283 183 160 150 161 185 180 171 178 193 203 204 206 218 230 231 207 211 214 212 206 204 200 206 206 198 200
325 234 51 205 260 257 271 264 282 335 351 357 360 360 354 356 360 2 1 359 357 344 328 314 162 181 176 158 181 194 202 222 217 197 206 218 224 220 206 206 209 212 210 206 200 203 210 206 207
6 11 299 252 238 239 272 278 335 344 352 347 344 348 346 346 347 346 349 348 352 4 5 355 347 359 356 250 231 218 244 244 229 222 224 223 219 214 210 211 211 208 205 205 207 213 202 208 210
180 245 171 232 276 246 243 275 7 15 357 349 341 343 343 342 344 344 345 352 357 356 352 351 344 339 310 276 247 241 259 259 244 243 241 232 223 218 213 208 209 212 211 207 210 218 214 211 211
Height
1495 1496 1498 1501 1505 1518 1518 1512 1508 1506 1504 1502 1502 1503 1504 1506 1509 1512 1506 1505 1507 1509 1511 1513 1516 1518 1519 1521 1523 1524 1525 1526 1527 1528 1529 1530 1531 1532 1533 1534 1535 1535 1536 1537 1538 1539 1540 1541 1541
1496 1498 1500 1501 1512 1522 1517 1508 1506 1503 1501 1501 1502 1502 1502 1503 1503 1504 1503 1505 1507 1509 1511 1513 1515 1517 1519 1520 1522 1523 1525 1526 1527 1528 1529 1530 1531 1532 1533 1533 1535 1535 1536 1537 1538 1539 1540 1541 1542
1497 1498 1501 1505 1515 1518 1509 1503 1502 1500 1500 1501 1501 1502 1502 1502 1502 1503 1503 1505 1507 1509 1511 1513 1515 1516 1518 1520 1521 1523 1524 1525 1526 1527 1528 1529 1530 1531 1532 1533 1534 1535 1536 1537 1538 1539 1540 1541 1542
1498 1500 1502 1510 1512 1509 1504 1500 1500 1500 1500 1500 1501 1501 1501 1502 1502 1503 1503 1505 1507 1509 1510 1512 1514 1516 1517 1519 1520 1522 1523 1524 1525 1527 1528 1529 1530 1531 1532 1533 1534 1535 1536 1537 1538 1539 1541 1542 1543
1498 1499 1507 1514 1510 1505 1501 1499 1499 1499 1499 1499 1500 1500 1500 1501 1501 1502 1503 1505 1506 1508 1510 1512 1513 1515 1516 1518 1519 1520 1522 1523 1525 1526 1527 1528 1529 1530 1532 1532 1533 1535 1536 1537 1538 1539 1541 1542 1543
1498 1500 1513 1514 1507 1502 1499 1498 1498 1498 1498 1499 1499 1500 1499 1500 1501 1502 1503 1505 1506 1508 1509 1511 1512 1514 1515 1516 1518 1519 1521 1522 1523 1525 1526 1527 1528 1530 1531 1532 1533 1534 1535 1536 1538 1539 1540 1541 1543
1499 1505 1510 1509 1507 1502 1497 1496 1496 1497 1497 1497 1498 1499 1498 1499 1500 1501 1503 1504 1506 1507 1509 1509 1511 1512 1514 1515 1517 1518 1519 1521 1522 1523 1525 1526 1527 1529 1530 1531 1532 1533 1534 1536 1537 1538 1540 1541 1542
1497 1504 1507 1508 1505 1500 1495 1495 1494 1495 1495 1496 1497 1497 1496 1498 1499 1500 1502 1504 1505 1507 1508 1509 1510 1511 1512 1514 1515 1517 1518 1519 1520 1522 1523 1525 1526 1527 1529 1530 1531 1532 1533 1535 1536 1537 1539 1540 1542
1497 1506 1507 1503 1502 1497 1494 1494 1494 1494 1494 1494 1494 1495 1495 1496 1497 1499 1501 1502 1504 1505 1506 1507 1509 1510 1511 1512 1513 1515 1516 1517 1519 1520 1522 1523 1524 1526 1527 1528 1530 1531 1532 1533 1535 1536 1537 1539 1540
1496 1504 1499 1496 1495 1493 1493 1493 1493 1493 1493 1493 1493 1493 1493 1494 1496 1497 1498 1500 1501 1503 1504 1506 1507 1508 1509 1510 1511 1513 1515 1516 1517 1519 1520 1521 1523 1524 1525 1527 1528 1529 1531 1532 1533 1534 1536 1538 1539
1494 1496 1494 1493 1492 1492 1492 1492 1492 1492 1492 1491 1490 1490 1491 1493 1494 1495 1496 1498 1499 1501 1502 1504 1505 1506 1507 1508 1509 1511 1513 1514 1515 1517 1518 1519 1521 1522 1524 1525 1526 1528 1529 1530 1531 1533 1534 1536 1538
1494 1492 1492 1491 1491 1491 1491 1491 1491 1490 1489 1489 1489 1489 1489 1490 1491 1492 1494 1496 1497 1499 1500 1502 1503 1504 1505 1506 1507 1509 1510 1512 1513 1515 1516 1518 1519 1520 1522 1523 1524 1526 1527 1528 1529 1531 1532 1534 1536
1492 1491 1491 1490 1490 1490 1490 1490 1489 1487 1487 1487 1487 1487 1487 1487 1489 1490 1492 1493 1495 1496 1498 1499 1500 1502 1503 1504 1505 1507 1508 1509 1511 1512 1514 1516 1517 1518 1520 1521 1522 1524 1525 1526 1527 1529 1530 1532 1534
1491 1490 1489 1489 1488 1488 1489 1487 1488 1482 1484 1484 1483 1484 1485 1485 1486 1488 1489 1490 1492 1493 1495 1496 1497 1499 1500 1501 1503 1504 1506 1507 1509 1510 1512 1513 1515 1516 1517 1519 1520 1522 1523 1524 1525 1527 1528 1530 1532
1490 1491 1489 1487 1487 1487 1488 1486 1483 1480 1481 1481 1481 1481 1482 1482 1484 1485 1486 1487 1489 1491 1492 1493 1494 1496 1497 1499 1500 1502 1503 1505 1507 1508 1510 1511 1512 1514 1515 1516 1517 1519 1520 1522 1523 1525 1526 1528 1530
1491 1492 1493 1487 1486 1486 1490 1486 1479 1478 1478 1478 1478 1478 1478 1479 1480 1482 1483 1485 1486 1488 1489 1490 1491 1493 1494 1496 1498 1499 1501 1502 1504 1506 1507 1508 1510 1511 1512 1513 1515 1516 1518 1519 1521 1522 1524 1525 1527
1494 1496 1493 1489 1485 1485 1487 1484 1477 1476 1476 1475 1475 1475 1475 1475 1477 1478 1480 1482 1483 1485 1486 1487 1488 1489 1491 1493 1495 1496 1498 1500 1501 1503 1504 1506 1507 1509 1510 1511 1512 1514 1515 1517 1518 1520 1521 1523 1525
1496 1496 1493 1490 1485 1485 1486 1481 1475 1475 1474 1473 1472 1472 1472 1472 1473 1475 1476 1478 1480 1482 1483 1484 1485 1486 1488 1490 1492 1493 1495 1497 1499 1500 1502 1503 1505 1506 1507 1509 1510 1511 1513 1514 1516 1517 1519 1520 1522
1493 1493 1492 1488 1484 1485 1483 1479 1474 1472 1472 1470 1469 1468 1468 1468 1470 1471 1473 1475 1476 1478 1480 1481 1482 1483 1485 1487 1488 1490 1492 1494 1496 1497 1499 1501 1502 1503 1505 1506 1507 1509 1510 1512 1513 1515 1516 1518 1519
1492 1492 1491 1487 1484 1484 1482 1477 1471 1469 1468 1467 1466 1465 1465 1465 1466 1468 1469 1471 1473 1475 1476 1478 1479 1481 1482 1484 1486 1488 1489 1491 1493 1495 1496 1498 1499 1501 1502 1503 1504 1506 1507 1509 1510 1512 1513 1515 1516
1490 1491 1490 1489 1485 1483 1484 1477 1471 1466 1465 1464 1463 1462 1462 1463 1463 1465 1466 1468 1469 1471 1473 1475 1477 1478 1480 1482 1483 1485 1487 1489 1490 1492 1493 1495 1496 1497 1499 1500 1501 1503 1504 1506 1507 1509 1510 1512 1514
1490 1487 1487 1486 1488 1488 1485 1485 1472 1468 1465 1462 1461 1460 1460 1460 1461 1462 1463 1465 1466 1468 1471 1472 1474 1476 1477 1479 1481 1482 1483 1485 1487 1489 1490 1492 1493 1494 1496 1497 1498 1499 1501 1503 1504 1506 1507 1509 1510
1487 1485 1485 1485 1487 1488 1486 1487 1476 1469 1466 1463 1461 1459 1459 1459 1459 1460 1461 1462 1464 1466 1468 1470 1471 1473 1475 1476 1478 1480 1481 1482 1484 1486 1487 1489 1490 1491 1492 1493 1495 1496 1498 1499 1501 1502 1504 1505 1507
1486 1486 1485 1487 1488 1486 1481 1485 1478 1473 1468 1464 1461 1459 1458 1458 1458 1458 1459 1461 1462 1464 1465 1467 1469 1471 1472 1474 1475 1477 1478 1480 1481 1482 1484 1485 1486 1488 1489 1490 1492 1493 1495 1496 1498 1499 1501 1502 1504
1488 1491 1492 1489 1489 1483 1479 1482 1478 1469 1466 1464 1462 1460 1459 1458 1457 1457 1458 1459 1460 1461 1463 1465 1466 1468 1469 1471 1473 1474 1476 1477 1478 1479 1480 1482 1483 1484 1485 1487 1488 1490 1492 1493 1494 1496 1497 1499 1500
1491 1491 1495 1493 1488 1484 1481 1482 1476 1469 1466 1464 1462 1461 1459 1457 1457 1457 1457 1458 1458 1459 1461 1462 1464 1466 1467 1469 1470 1472 1473 1474 1475 1476 1477 1478 1479 1481 1482 1484 1485 1486 1488 1490 1491 1492 1494 1495 1497
1492 1492 1491 1494 1491 1490 1483 1481 1474 1467 1465 1464 1462 1460 1459 1458 1457 1457 1457 1457 1457 1457 1459 1460 1461 1463 1464 1466 1467 1469 1470 1471 1472 1473 1474 1475 1476 1478 1479 1480 1482 1483 1484 1486 1487 1489 1490 1492 1493
1494 1494 1497 1495 1490 1485 1482 1482 1480 1472 1470 1468 1466 1464 1461 1459 1457 1457 1456 1456 1456 1457 1457 1458 1459 1460 1462 1463 1464 1466 1467 1468 1469 1470 1471 1472 1473 1475 1476 1477 1478 1479 1481 1482 1483 1484 1486 1487 1488
1497 1497 1497 1498 1495 1491 1488 1485 1478 1477 1474 1472 1469 1467 1464 1461 1459 1457 1456 1455 1455 1455 1456 1456 1457 1458 1459 1461 1462 1463 1464 1465 1465 1466 1467 1468 1470 1471 1472 1473 1474 1475 1477 1478 1479 1480 1481 1482 1483
1497 1498 1499 1501 1498 1497 1495 1489 1479 1478 1475 1473 1470 1468 1465 1462 1460 1457 1456 1455 1454 1453 1454 1454 1455 1456 1457 1458 1459 1460 1461 1461 1462 1463 1464 1465 1466 1467 1468 1469 1470 1471 1472 1474 1475 1475 1477 1478 1478